Weather History for Sanford, NC

Change the Weather History Date:

Thursday, March 6, 2014

  Actual Average (KRDU) Record (KRDU)
Temperature  
Mean Temperature 36 °F 49 °F  
Max Temperature 43 °F 60 °F 82 °F (1967)
Min Temperature 28 °F 37 °F 11 °F (1960)
Degree Days  
Heating Degree Days 30 16  
Month to date heating degree days 102  
Since 1 July heating degree days 2674  
Cooling Degree Days 0 0  
Month to date cooling degree days 0  
Year to date cooling degree days 1  
Moisture  
Dew Point 25 °F    
Average Humidity 68    
Maximum Humidity 96    
Minimum Humidity 44    
Precipitation  
Precipitation 0.42 in 0.13 in 3.40 in (1932)
Month to date precipitation 0.78  
Year to date precipitation 7.51  
Snow  
Snow 0.00 in 0.00 in 3.00 in (1912)
Month to date snowfall 0.2  
Since 1 July snowfall 5.7  
Snow Depth -    
Sea Level Pressure  
Sea Level Pressure 30.26 in    
Wind  
Wind Speed 9 mph (NNE)    
Max Wind Speed 18 mph    
Max Gust Speed 29 mph    
Visibility 9 miles    
Events Rain    
T = Trace of Precipitation, MM = Missing Value Source: NWS Daily Summary

Daily Weather History Graph

Daily Weather History Graph

Search for Another Location

Airport:

Trip Planner

Search our weather history database for the weather conditions in past years. The results will help you decide how hot, cold, wet, or windy it might be!

Date:

Astronomy

Mar. 06, 2014 Rise Set
Actual Time 6:39 AM EST 6:16 PM EST
Civil Twilight 6:14 AM EST 6:41 PM EST
Nautical Twilight 5:44 AM EST 7:11 PM EST
Astronomical Twilight 5:15 AM EST 7:40 PM EST
Moon 9:57 AM EST (3/6) No Moon Set
Length of Visible Light 12h 27m
Length of Day
11h 36m
Waxing Crescent, 32% of the Moon is Illuminated
Mar 6
Waxing Crescent
Mar 8
First Quarter
Mar 16
Full
Mar 23
Last Quarter
Mar 30
New

Hourly Weather History & Observations

Time (EST) Temp. Windchill Dew Point Humidity Pressure Visibility Wind Dir Wind Speed Gust Speed Precip Events Conditions
12:15 AM 33.8 °F 27.7 °F 21.2 °F 60% 30.27 in 10.0 mi NNE 6.9 mph - N/A   Unknown
12:35 AM 34.2 °F 29.0 °F 21.2 °F 59% 30.27 in 10.0 mi NNE 5.8 mph - N/A   Unknown
12:55 AM 34.3 °F 30.2 °F 20.8 °F 58% 30.28 in 10.0 mi NNE 4.6 mph - N/A   Unknown
1:15 AM 33.4 °F 27.3 °F 21.0 °F 60% 30.29 in 10.0 mi NNE 6.9 mph - N/A   Unknown
1:35 AM 32.7 °F 25.7 °F 21.0 °F 62% 30.28 in 10.0 mi NNE 8.1 mph - N/A   Unknown
1:55 AM 32.5 °F 26.2 °F 20.3 °F 61% 30.28 in 10.0 mi NNE 6.9 mph - N/A   Unknown
2:15 AM 32.5 °F 28.1 °F 19.6 °F 59% 30.28 in 10.0 mi NNE 4.6 mph - N/A   Unknown
2:35 AM 32.0 °F - 20.7 °F 63% 30.30 in 10.0 mi Calm Calm - N/A   Unknown
2:55 AM 30.0 °F - 21.7 °F 71% 30.29 in 10.0 mi Calm Calm - N/A   Unknown
3:15 AM 30.6 °F - 20.3 °F 66% 30.28 in 10.0 mi Calm Calm - N/A   Unknown
3:35 AM 30.6 °F 27.1 °F 20.1 °F 65% 30.28 in 10.0 mi NNE 3.5 mph - N/A   Unknown
4:00 AM 29.8 °F - 19.9 °F 67% 30.28 in 10.0 mi Calm Calm - N/A   Unknown
4:15 AM 28.4 °F 22.2 °F 20.3 °F 72% 30.28 in 10.0 mi NNE 5.8 mph - N/A   Unknown
4:35 AM 29.8 °F 23.0 °F 21.0 °F 70% 30.29 in 10.0 mi NNE 6.9 mph - N/A   Unknown
4:55 AM 32.0 °F 25.6 °F 18.0 °F 56% 30.29 in 10.0 mi NNE 6.9 mph - N/A   Unknown
5:15 AM 32.0 °F 25.6 °F 16.3 °F 52% 30.30 in 10.0 mi NNE 6.9 mph - N/A   Unknown
5:35 AM 32.0 °F 25.6 °F 16.5 °F 53% 30.31 in 10.0 mi NNE 6.9 mph - N/A   Unknown
5:55 AM 30.9 °F 24.3 °F 16.5 °F 55% 30.32 in 10.0 mi NNE 6.9 mph - N/A   Unknown
6:15 AM 29.3 °F 23.2 °F 18.7 °F 65% 30.32 in 10.0 mi NNE 5.8 mph - N/A   Unknown
6:35 AM 29.3 °F 24.3 °F 17.2 °F 61% 30.34 in 10.0 mi NNE 4.6 mph - N/A   Unknown
6:55 AM 30.0 °F 25.2 °F 17.4 °F 59% 30.35 in 10.0 mi NNE 4.6 mph - N/A   Unknown
7:15 AM 30.2 °F 24.3 °F 18.5 °F 62% 30.36 in 10.0 mi NNE 5.8 mph - N/A   Unknown
7:35 AM 32.2 °F 24.4 °F 19.0 °F 58% 30.34 in 10.0 mi NNE 9.2 mph - N/A   Unknown
7:55 AM 33.4 °F 23.9 °F 19.8 °F 57% 30.35 in 10.0 mi NNE 13.8 mph 19.6 mph N/A   Unknown
8:15 AM 34.7 °F 27.5 °F 20.3 °F 56% 30.36 in 10.0 mi NE 9.2 mph 18.4 mph N/A   Unknown
8:35 AM 35.6 °F 26.6 °F 20.7 °F 55% 30.35 in 10.0 mi NNE 13.8 mph 18.4 mph N/A   Unknown
8:55 AM 36.7 °F 26.9 °F 21.0 °F 53% 30.36 in 10.0 mi NNE 17.3 mph 24.2 mph N/A   Unknown
9:15 AM 37.9 °F 29.2 °F 21.7 °F 52% 30.36 in 10.0 mi NNE 15.0 mph 18.4 mph N/A   Unknown
9:35 AM 39.4 °F 30.7 °F 22.1 °F 50% 30.36 in 10.0 mi NNE 16.1 mph 20.7 mph N/A   Unknown
9:55 AM 39.7 °F 31.5 °F 21.2 °F 48% 30.36 in 10.0 mi NNE 15.0 mph 19.6 mph N/A   Unknown
10:15 AM 39.9 °F 32.5 °F 22.1 °F 49% 30.36 in 10.0 mi North 12.7 mph 17.3 mph N/A   Unknown
10:35 AM 40.1 °F 32.4 °F 22.3 °F 49% 30.35 in 10.0 mi North 13.8 mph 17.3 mph N/A   Unknown
10:55 AM 40.1 °F 31.6 °F 21.7 °F 48% 30.32 in 10.0 mi NNE 16.1 mph 24.2 mph N/A   Unknown
11:15 AM 40.1 °F 32.7 °F 21.2 °F 47% 30.32 in 10.0 mi North 12.7 mph 21.9 mph N/A   Unknown
11:35 AM 40.6 °F 33.4 °F 21.9 °F 47% 30.32 in 10.0 mi North 12.7 mph 19.6 mph N/A   Unknown
11:55 AM 41.9 °F 35.4 °F 21.7 °F 45% 30.32 in 10.0 mi NNE 11.5 mph 17.3 mph N/A   Unknown
12:15 PM 42.4 °F 35.7 °F 21.9 °F 44% 30.31 in 10.0 mi NNE 12.7 mph - N/A   Unknown
12:35 PM 42.8 °F 37.0 °F 22.6 °F 45% 30.30 in 10.0 mi North 10.4 mph 18.4 mph N/A   Unknown
12:55 PM 42.4 °F 35.0 °F 22.5 °F 45% 30.29 in 10.0 mi North 15.0 mph 20.7 mph N/A   Unknown
1:15 PM 43.5 °F 37.5 °F 23.0 °F 44% 30.28 in 10.0 mi NNE 11.5 mph 18.4 mph N/A   Unknown
1:35 PM 43.5 °F 36.7 °F 23.7 °F 46% 30.27 in 10.0 mi NNE 13.8 mph 19.6 mph N/A   Unknown
1:55 PM 43.5 °F 36.7 °F 24.1 °F 46% 30.26 in 10.0 mi NNE 13.8 mph 17.3 mph N/A   Unknown
2:15 PM 43.2 °F 35.3 °F 25.2 °F 49% 30.25 in 10.0 mi NNE 17.3 mph 20.7 mph N/A   Unknown
2:35 PM 42.8 °F 35.8 °F 25.7 °F 51% 30.23 in 10.0 mi NE 13.8 mph 23.0 mph N/A   Unknown
2:55 PM 42.4 °F 35.7 °F 26.6 °F 54% 30.23 in 10.0 mi NNE 12.7 mph 19.6 mph N/A   Unknown
3:15 PM 41.9 °F 35.0 °F 27.3 °F 56% 30.23 in 10.0 mi NE 12.7 mph 16.1 mph N/A   Unknown
3:35 PM 41.5 °F 35.4 °F 27.1 °F 57% 30.22 in 10.0 mi NE 10.4 mph 18.4 mph N/A   Unknown
3:55 PM 41.2 °F 34.5 °F 27.7 °F 59% 30.22 in 10.0 mi NE 11.5 mph 21.9 mph N/A   Unknown
4:15 PM 40.3 °F 33.0 °F 28.9 °F 64% 30.22 in 10.0 mi NNE 12.7 mph 19.6 mph N/A   Light Drizzle
4:35 PM 38.7 °F 32.9 °F 31.3 °F 75% 30.22 in 10.0 mi NE 8.1 mph - N/A Rain Light Rain
4:55 PM 37.4 °F 30.8 °F 32.4 °F 82% 30.22 in 7.0 mi NNE 9.2 mph 19.6 mph N/A Rain Light Rain
5:15 PM 36.7 °F 31.2 °F 33.8 °F 89% 30.22 in 4.0 mi NNE 6.9 mph - 0.01 in Rain Rain
5:35 PM 36.1 °F 29.3 °F 33.1 °F 89% 30.23 in 4.0 mi NNE 9.2 mph 19.6 mph 0.03 in Rain Rain
5:55 PM 35.6 °F 27.5 °F 33.8 °F 93% 30.22 in 4.0 mi NNE 11.5 mph 18.4 mph 0.04 in Rain Light Rain
6:15 PM 35.4 °F 26.8 °F 33.8 °F 94% 30.21 in 7.0 mi NNE 12.7 mph - 0.01 in Rain Rain
6:35 PM 35.1 °F 27.9 °F 33.4 °F 94% 30.21 in 5.0 mi NE 9.2 mph 17.3 mph 0.02 in Rain Rain
6:55 PM 34.9 °F 26.2 °F 33.3 °F 94% 30.20 in 7.0 mi NNE 12.7 mph 23.0 mph 0.03 in Rain Light Rain
7:15 PM 34.7 °F 24.7 °F 33.1 °F 94% 30.19 in 7.0 mi NNE 16.1 mph 23.0 mph 0.01 in Rain Light Rain
7:35 PM 34.3 °F 26.5 °F 32.9 °F 94% 30.19 in 5.0 mi NNE 10.4 mph 17.3 mph 0.02 in Rain Rain
7:55 PM 34.2 °F 26.2 °F 32.9 °F 95% 30.18 in 4.0 mi NNE 10.4 mph 19.6 mph 0.05 in Rain Rain
8:15 PM 34.2 °F 25.2 °F 32.9 °F 95% 30.19 in 5.0 mi NNE 12.7 mph 18.4 mph 0.02 in Rain Rain
8:35 PM 34.2 °F 26.2 °F 32.9 °F 95% 30.18 in 5.0 mi NNE 10.4 mph 16.1 mph 0.05 in Rain Rain
8:55 PM 34.2 °F 25.7 °F 32.9 °F 95% 30.17 in 5.0 mi NNE 11.5 mph 21.9 mph 0.09 in Rain Rain
9:15 PM 34.2 °F 24.8 °F 32.9 °F 95% 30.16 in 5.0 mi NNE 13.8 mph 18.4 mph 0.04 in Rain Rain
9:40 PM 34.2 °F 23.6 °F 32.9 °F 95% 30.15 in 7.0 mi NNE 17.3 mph 23.0 mph 0.06 in Rain Rain
9:55 PM 34.3 °F 25.0 °F 33.1 °F 95% 30.14 in 7.0 mi NNE 13.8 mph 20.7 mph 0.08 in Rain Rain
10:15 PM 34.2 °F 24.0 °F 32.9 °F 95% 30.14 in 7.0 mi NNE 16.1 mph 25.3 mph 0.02 in Rain Rain
10:35 PM 34.2 °F 24.8 °F 32.9 °F 95% 30.14 in 5.0 mi NNE 13.8 mph 19.6 mph 0.04 in Rain Rain
10:55 PM 34.2 °F 24.8 °F 33.1 °F 96% 30.13 in 5.0 mi NNE 13.8 mph 19.6 mph 0.07 in Rain Rain
11:15 PM 34.2 °F 25.7 °F 33.1 °F 96% 30.12 in 5.0 mi NNE 11.5 mph 19.6 mph 0.01 in Rain Rain
11:35 PM 34.0 °F 23.4 °F 32.9 °F 96% 30.08 in 5.0 mi NNE 17.3 mph 25.3 mph 0.04 in Rain Rain
11:55 PM 34.0 °F 23.0 °F 32.9 °F 96% 30.08 in 5.0 mi NNE 18.4 mph 28.8 mph 0.06 in Rain Light Rain